HULIANWANG DIGUI 13A

Last updated on Tue Dec 09 2025 00:02:05 GMT+0000 (Coordinated Universal Time)

1 66412U 25258A 25342.35984513 .00000557 00000+0 33138-3 0 9992 2 66412 50.0042 280.4566 0007658 343.0746 16.9909 14.20432847 4032
UTC large
Height (km)
Speed (km/s)
/
Latitude / Longitude
Inclination (degrees)
Orbital Period (minutes)
Azimuth
Elevation
Range (km)
Doppler Factor

Next 0 passes for location: London (51.5072 / 0.1276)

Sorry there are no passes over London.